Weather History for KGON - August, 2013

Change the Weather History Date:

Sunday, August 4, 2013

  Actual Average Record
Temperature  
Mean Temperature 69 °F -  
Max Temperature 82 °F 81 °F 90 °F (1980)
Min Temperature 57 °F 65 °F 50 °F (1964)
Cooling Degree Days 4    
Growing Degree Days 19 (Base 50)    
Moisture  
Dew Point 59 °F    
Average Humidity 72    
Maximum Humidity 93    
Minimum Humidity 42    
Precipitation  
Precipitation 0.13 in - - ()
Sea Level Pressure  
Sea Level Pressure 29.84 in    
Wind  
Wind Speed 6 mph (NW)    
Max Wind Speed 14 mph    
Max Gust Speed 26 mph    
Visibility 9 miles    
Events Rain    
Averages and records for this station are not official NWS values.
T = Trace of Precipitation, MM = Missing Value Source: NWS Daily Summary

Daily Weather History Graph

Daily Weather History Graph

Search for Another Location

Airport or City:

Trip Planner

Search our weather history database for the weather conditions in past years. The results will help you decide how hot, cold, wet, or windy it might be!

Date:

Astronomy

Aug. 04, 2013 Rise Set
Actual Time 5:46 AM EDT 8:01 PM EDT
Civil Twilight 5:15 AM EDT 8:32 PM EDT
Nautical Twilight 4:37 AM EDT 9:09 PM EDT
Astronomical Twilight 3:55 AM EDT 9:51 PM EDT
Moon 3:44 AM EDT (8/4) 6:22 PM EDT (8/4)
Length of Visible Light 15h 16m
Length of Day
14h 14m
Waning Crescent, 5% of the Moon is Illuminated
Aug 4
Waning Crescent
Aug 6
New
Aug 14
First Quarter
Aug 20
Full
Aug 28
Last Quarter

Hourly Weather History & Observations

Time (EDT) Temp. Heat Index Dew Point Humidity Pressure Visibility Wind Dir Wind Speed Gust Speed Precip Events Conditions
12:56 AM 63.0 °F - 61.0 °F 93% 29.85 in 7.0 mi North 3.5 mph - N/A   Clear
1:56 AM 63.0 °F - 60.1 °F 90% 29.84 in 8.0 mi North 3.5 mph - N/A   Clear
2:56 AM 62.1 °F - 60.1 °F 93% 29.84 in 9.0 mi North 3.5 mph - N/A   Clear
3:56 AM 62.1 °F - 60.1 °F 93% 29.84 in 9.0 mi NNW 3.5 mph - N/A   Clear
4:56 AM 61.0 °F - 55.9 °F 83% 29.83 in 10.0 mi North 4.6 mph - N/A   Clear
5:56 AM 57.9 °F - 55.9 °F 93% 29.84 in 10.0 mi NNW 3.5 mph - N/A   Clear
6:56 AM 64.0 °F - 57.9 °F 80% 29.85 in 10.0 mi Calm Calm - N/A   Clear
7:56 AM 69.1 °F - 57.9 °F 68% 29.85 in 10.0 mi NNW 10.4 mph - N/A   Clear
8:56 AM 72.0 °F - 57.0 °F 59% 29.84 in 10.0 mi NNW 10.4 mph - N/A   Clear
9:56 AM 75.9 °F - 57.0 °F 52% 29.84 in 10.0 mi NW 8.1 mph - N/A   Clear
10:56 AM 77.0 °F - 57.0 °F 50% 29.84 in 10.0 mi NNW 6.9 mph 16.1 mph N/A   Clear
11:56 AM 78.1 °F - 55.9 °F 46% 29.84 in 10.0 mi WNW 10.4 mph - N/A   Clear
12:56 PM 80.1 °F 80.2 °F 55.9 °F 43% 29.83 in 10.0 mi NW 13.8 mph 19.6 mph N/A   Clear
1:56 PM 81.0 °F 81.0 °F 57.0 °F 44% 29.81 in 10.0 mi WNW 11.5 mph - N/A   Partly Cloudy
2:56 PM 81.0 °F 80.8 °F 55.9 °F 42% 29.81 in 10.0 mi Variable 4.6 mph - N/A   Scattered Clouds
3:56 PM 75.9 °F - 63.0 °F 64% 29.81 in 10.0 mi WSW 9.2 mph - 0.00 in Rain Light Rain
4:56 PM 79.0 °F - 57.0 °F 47% 29.81 in 10.0 mi NNW 10.4 mph - 0.00 in Rain Light Rain
5:53 PM 66.2 °F - 62.6 °F 88% 29.83 in 1.8 mi NW 12.7 mph 26.5 mph 0.10 in Rain Heavy Rain
5:56 PM 66.9 °F - 63.0 °F 87% 29.83 in 7.0 mi NNW 8.1 mph 26.5 mph 0.13 in Rain Heavy Rain
6:56 PM 70.0 °F - 62.1 °F 76% 29.84 in 10.0 mi West 3.5 mph - 0.00 in   Clear
7:56 PM 68.0 °F - 62.1 °F 81% 29.85 in 10.0 mi West 3.5 mph - N/A   Clear
8:56 PM 64.9 °F - 62.1 °F 90% 29.88 in 10.0 mi NW 4.6 mph - N/A   Clear
9:56 PM 64.0 °F - 57.9 °F 80% 29.90 in 10.0 mi NNW 5.8 mph - N/A   Partly Cloudy
10:56 PM 62.1 °F - 57.0 °F 84% 29.91 in 10.0 mi NW 5.8 mph - N/A   Clear
11:56 PM 61.0 °F - 55.9 °F 83% 29.91 in 10.0 mi NNW 8.1 mph - N/A   Clear